Location: Newark
(45.5000°N, 11.4167°E)
Time: 23:44:06
(UTC+00:00)

Transit 2A Rocket - Pass Details

Date: 26 August 2019
Orbit: 592 x 911 km, 66.7° (Epoch: 20 September)

Event Time Altitude Azimuth Distance (km) Brightness Sun altitude
Rises 18:29:39 0° 236° (SW) 3,421 8.9 -5.1°
Reaches altitude 10° 18:32:22 10° 244° (WSW) 2,445 8.3 -5.6°
Maximum altitude 18:37:34 37° 311° (NW) 1,203 6.8 -6.4°
Drops below altitude 10° 18:42:24 10° 20° (NNE) 2,259 7.5 -7.2°
Sets 18:44:51 0° 28° (NNE) 3,131 8.1 -7.6°
